Location: ??
(35.5653°N, 139.6194°E)
Time: 04:41:17
(UTC+00:00)

H-2A ROCKET BODY - Pass Details

Date: 20 November 2019
Orbit: 236 x 15438 km, 28.7° (Epoch: 14 December)

Event Time Altitude Azimuth Distance (km) Brightness Sun altitude
Exits shadow 18:23:15 55° 224° (SW) 2,662 4.3 -36.2°
Maximum altitude 18:25:57 63° 182° (S) 3,071 4.8 -35.6°
Drops below altitude 10° 19:26:50 10° 114° (ESE) 16,709 9.8 -23.3°
Sets 20:03:39 0° 116° (ESE) 20,439 10.9 -16.0°
